Weather History for Monterey, CA

Change the Weather History Date:

Sunday, November 24, 2013

  Actual Average Record
Temperature  
Mean Temperature 55 °F 53 °F  
Max Temperature 64 °F 62 °F 71 °F (2007)
Min Temperature 45 °F 44 °F 33 °F (2010)
Degree Days  
Heating Degree Days 10    
Month to date heating degree days 223  
Since 1 July heating degree days 714  
Cooling Degree Days 0    
Month to date cooling degree days 0  
Year to date cooling degree days 49  
Growing Degree Days 4 (Base 50)    
Moisture  
Dew Point 39 °F    
Average Humidity 63    
Maximum Humidity 89    
Minimum Humidity 37    
Precipitation  
Precipitation 0.00 in - 0.62 in (2001)
Month to date precipitation 0.46  
Year to date precipitation 4.16  
Since 1 July precipitation 1.01  
Sea Level Pressure  
Sea Level Pressure 30.22 in    
Wind  
Wind Speed 5 mph (East)    
Max Wind Speed 13 mph    
Max Gust Speed 25 mph    
Visibility 10 miles    
Events      
T = Trace of Precipitation, MM = Missing Value Source: NWS Daily Summary

Daily Weather History Graph

Daily Weather History Graph

Search for Another Location

Airport:

Trip Planner

Search our weather history database for the weather conditions in past years. The results will help you decide how hot, cold, wet, or windy it might be!

Date:

Astronomy

Nov. 24, 2013 Rise Set
Actual Time 6:54 AM PST 4:53 PM PST
Civil Twilight 6:26 AM PST 5:21 PM PST
Nautical Twilight 5:54 AM PST 5:53 PM PST
Astronomical Twilight 5:23 AM PST 6:24 PM PST
Moon 11:19 PM PST (11/24) 11:49 AM PST (11/24)
Length of Visible Light 10h 55m
Length of Day
9h 59m
Waning Gibbous, 59% of the Moon is Illuminated
Nov 24
Waning Gibbous
Nov 25
Last Quarter
Dec 2
New
Dec 9
First Quarter
Dec 17
Full

Hourly Weather History & Observations

Time (PST) Temp. Windchill Dew Point Humidity Pressure Visibility Wind Dir Wind Speed Gust Speed Precip Events Conditions
12:54 AM 46.0 °F 43.1 °F 39.9 °F 79% 30.16 in 10.0 mi East 5.8 mph - N/A   Clear
1:54 AM 45.0 °F 42.6 °F 41.0 °F 86% 30.16 in 10.0 mi East 4.6 mph - N/A   Clear
2:54 AM 45.0 °F 42.6 °F 39.9 °F 82% 30.16 in 10.0 mi ESE 4.6 mph - N/A   Clear
3:54 AM 46.9 °F - 39.9 °F 77% 30.16 in 10.0 mi East 6.9 mph - N/A   Clear
4:54 AM 46.9 °F - 39.9 °F 77% 30.16 in 10.0 mi East 5.8 mph - N/A   Clear
5:54 AM 46.9 °F - 39.0 °F 74% 30.18 in 10.0 mi East 4.6 mph - N/A   Clear
6:54 AM 48.0 °F - 37.9 °F 68% 30.19 in 10.0 mi East 6.9 mph - N/A   Clear
7:54 AM 50.0 °F - 39.0 °F 66% 30.21 in 10.0 mi ENE 11.5 mph 25.3 mph N/A   Clear
8:54 AM 57.0 °F - 42.1 °F 57% 30.22 in 10.0 mi East 4.6 mph - N/A   Clear
9:54 AM 62.1 °F - 39.9 °F 44% 30.24 in 10.0 mi Calm Calm - N/A   Clear
10:54 AM 62.1 °F - 43.0 °F 50% 30.24 in 10.0 mi WNW 4.6 mph - N/A   Clear
11:54 AM 64.0 °F - 37.9 °F 38% 30.22 in 10.0 mi NW 5.8 mph - N/A   Clear
12:54 PM 63.0 °F - 39.0 °F 41% 30.22 in 10.0 mi West 6.9 mph - N/A   Clear
1:54 PM 63.0 °F - 39.0 °F 41% 30.21 in 10.0 mi NW 5.8 mph - N/A   Clear
2:54 PM 63.0 °F - 39.0 °F 41% 30.22 in 10.0 mi West 5.8 mph - N/A   Clear
3:54 PM 62.1 °F - 39.0 °F 43% 30.22 in 10.0 mi Variable 4.6 mph - N/A   Clear
4:54 PM 60.1 °F - 39.0 °F 46% 30.22 in 10.0 mi Calm Calm - N/A   Clear
5:54 PM 53.1 °F - 39.0 °F 59% 30.25 in 10.0 mi East 3.5 mph - N/A   Clear
6:54 PM 51.1 °F - 39.0 °F 63% 30.26 in 10.0 mi East 3.5 mph - N/A   Clear
7:54 PM 50.0 °F - 39.0 °F 66% 30.27 in 10.0 mi East 4.6 mph - N/A   Clear
8:54 PM 48.9 °F - 39.0 °F 69% 30.28 in 10.0 mi East 3.5 mph - N/A   Clear
9:54 PM 48.0 °F - 37.9 °F 68% 30.29 in 10.0 mi East 3.5 mph - N/A   Clear
10:54 PM 48.0 °F - 37.9 °F 68% 30.29 in 10.0 mi Calm Calm - N/A   Clear
11:54 PM 48.9 °F - 37.9 °F 66% 30.28 in 10.0 mi East 8.1 mph - N/A   Clear